Regional Weather Roundup
Issued by NWS

Home | Current Version | Previous Version | Graphics & Text | Print | Product List | Glossary On
Versions: 1 2 3 4 5 6 7 8 9 10 11 12 13 14 15 16 17 18 19 20 21 22 23 24 25 26 27 28
000
ASUS45 KBOI 222110
RWRID

IDAHO REGIONAL WEATHER ROUNDUP
NATIONAL WEATHER SERVICE BOISE ID
300 PM MDT THU JUN 22 2017

NOTE: "FAIR" INDICATES FEW OR NO CLOUDS BELOW 12000 FEET
WITH NO SIGNIFICANT WEATHER AND/OR OBSTRUCTIONS TO VISIBILITY

IDZ012-014-222200-
SOUTHWEST IDAHO


CITY           SKY/WX    TMP DP  RH WIND       PRES   REMARKS
BOISE          FAIR      79  29  16 NW21G30   30.10R
CALDWELL       FAIR      79  36  21 W9        30.11F
MOUNTAIN HOME  FAIR      81  26  13 NW30      30.06F
$$

IDZ016-017-222200-
SOUTHCENTRAL IDAHO


CITY           SKY/WX    TMP DP  RH WIND       PRES   REMARKS
BURLEY         FAIR      75  30  19 W13G23    30.09F
JEROME         FAIR      78  28  16 SW16G28   30.09F
TWIN FALLS     FAIR      78  28  16 W18G26    30.10F
$$

IDZ019>023-222200-
SOUTHEAST IDAHO


CITY           SKY/WX    TMP DP  RH WIND       PRES   REMARKS
IDAHO FALLS    SUNNY     75  33  21 CALM      30.09F
POCATELLO      SUNNY     76  40  27 W9        30.10F
REXBURG        SUNNY     74  28  18 S9        30.08F
$$

IDZ006-010-011-018-031-032-222200-
CENTRAL IDAHO MOUNTAINS


CITY           SKY/WX    TMP DP  RH WIND       PRES   REMARKS
MCCALL         FAIR      69  23  17 NW8       30.19S
HAILEY         SUNNY     72  43  35 SE9       30.12F
STANLEY          N/A     72  21  14 VRB6G18   30.19S
SALMON         SUNNY     72  28  20 CALM      30.09F
CHALLIS        FAIR      75  14  10 NE14G20   30.10F
$$

IDZ002-004-006-007-026-222200-
NORTHERN IDAHO


CITY           SKY/WX    TMP DP  RH WIND       PRES   REMARKS
LEWISTON       FAIR      78  32  18 NW13      30.20S
LOWELL           N/A     77  34  21 VRB6      30.16F
COEUR D`ALENE  FAIR      71  34  25 CALM      30.20S
MULLAN PASS    FAIR      56  25  30 VRB5      30.27R
$$




USA.gov is the U.S. government's official web portal to all federal, state and local government web resources and services.